When you browse on this site, cookies collect data to enhance your experience and personalize the content and advertising you see.
Visit our Privacy Policy to learn more. By continuing to use the site, you agree to this use of cookies and data.
  • In Lithuania
  • List of Countries
  • For 7 days
  • Water Temperature
  • Satellite Maps
  • Weather Map
  • Weather Widgets
  • user-avatar
    Login

    Hourly Weather Jewłach

    Today, 19 April, Friday

    Time Temperature Precipitation Wind Pressure Humidity
    00:00 +9°C° 0.3 mm 5 mps 761 mmHg 75%
    01:00 +9°C° 0.2 mm 5 mps 761 mmHg 76%
    02:00 +9°C° 0.2 mm 5 mps 761 mmHg 76%
    03:00 +9°C° 0 mm 5 mps 760 mmHg 76%
    04:00 +10°C° 0.4 mm 4 mps 760 mmHg 78%
    05:00 +10°C° 0.4 mm 4 mps 760 mmHg 79%
    06:00 +8°C° 0.4 mm 4 mps 760 mmHg 80%
    07:00 +8°C° 0.8 mm 4 mps 760 mmHg 81%
    08:00 +8°C° 0.8 mm 4 mps 761 mmHg 82%
    09:00 +8°C° 0 mm 4 mps 760 mmHg 83%
    10:00 +8°C° 0.6 mm 5 mps 760 mmHg 82%
    11:00 +8°C° 0.6 mm 5 mps 760 mmHg 81%
    12:00 +8°C° 0.6 mm 5 mps 760 mmHg 81%
    13:00 +9°C° 0.8 mm 5 mps 760 mmHg 81%
    14:00 +9°C° 0.8 mm 5 mps 760 mmHg 81%
    15:00 +9°C° 0.8 mm 5 mps 760 mmHg 82%
    16:00 +8°C° 0.7 mm 5 mps 760 mmHg 82%
    17:00 +8°C° 0.7 mm 5 mps 761 mmHg 83%
    18:00 +8°C° 0.7 mm 5 mps 761 mmHg 84%
    19:00 +7°C° 0.5 mm 5 mps 761 mmHg 85%
    20:00 +7°C° 0.5 mm 6 mps 761 mmHg 86%
    21:00 +7°C° 0.5 mm 6 mps 762 mmHg 87%
    22:00 +5°C° 0.5 mm 6 mps 762 mmHg 88%
    23:00 +6°C° 0.5 mm 5 mps 762 mmHg 88%

    Tomorrow, 20 April, Saturday

    Time Temperature Precipitation Wind Pressure Humidity
    00:00 +6°C° 0.5 mm 5 mps 762 mmHg 89%
    01:00 +6°C° 0.6 mm 5 mps 762 mmHg 89%
    02:00 +5°C° 0.6 mm 5 mps 761 mmHg 89%
    03:00 +5°C° 0.6 mm 5 mps 761 mmHg 89%
    04:00 +5°C° 0.9 mm 5 mps 761 mmHg 89%
    05:00 +5°C° 0.9 mm 4 mps 761 mmHg 89%
    06:00 +5°C° 0.9 mm 4 mps 761 mmHg 89%
    07:00 +5°C° 0.9 mm 4 mps 762 mmHg 87%
    08:00 +6°C° 0.9 mm 4 mps 762 mmHg 86%
    09:00 +6°C° 0.9 mm 4 mps 762 mmHg 84%
    10:00 +7°C° 0.5 mm 4 mps 762 mmHg 80%
    11:00 +8°C° 0.5 mm 4 mps 762 mmHg 77%
    12:00 +8°C° 0.5 mm 4 mps 762 mmHg 73%
    13:00 +10°C° 0 mm 4 mps 762 mmHg 69%
    14:00 +11°C° 0 mm 4 mps 762 mmHg 66%
    15:00 +12°C° 0 mm 4 mps 762 mmHg 62%
    16:00 +12°C° 0 mm 4 mps 762 mmHg 65%
    17:00 +11°C° 0 mm 4 mps 763 mmHg 67%
    18:00 +11°C° 0 mm 4 mps 763 mmHg 70%
    19:00 +10°C° 0 mm 4 mps 763 mmHg 72%
    20:00 +8°C° 0 mm 4 mps 764 mmHg 75%
    21:00 +8°C° 0 mm 4 mps 765 mmHg 78%
    22:00 +7°C° 0 mm 4 mps 765 mmHg 78%
    23:00 +7°C° 0 mm 4 mps 765 mmHg 77%

    Day after tomorrow, 21 April, Sunday

    Time Temperature Precipitation Wind Pressure Humidity
    00:00 +6°C° 0 mm 5 mps 765 mmHg 76%
    01:00 +6°C° 0 mm 4 mps 765 mmHg 79%
    02:00 +5°C° 0 mm 3 mps 764 mmHg 82%
    03:00 +6°C° 0 mm 2 mps 764 mmHg 85%
    04:00 +6°C° 0 mm 2 mps 764 mmHg 85%
    05:00 +6°C° 0 mm 2 mps 765 mmHg 85%
    06:00 +6°C° 0 mm 2 mps 765 mmHg 85%
    07:00 +7°C° 0 mm 3 mps 765 mmHg 78%
    08:00 +8°C° 0 mm 3 mps 765 mmHg 72%
    09:00 +10°C° 0 mm 4 mps 765 mmHg 66%
    10:00 +11°C° 0 mm 4 mps 764 mmHg 62%
    11:00 +12°C° 0 mm 5 mps 764 mmHg 59%
    12:00 +13°C° 0 mm 5 mps 763 mmHg 55%
    13:00 +14°C° 0 mm 5 mps 763 mmHg 55%
    14:00 +14°C° 0 mm 5 mps 763 mmHg 54%
    15:00 +14°C° 0 mm 5 mps 763 mmHg 53%
    16:00 +14°C° 0 mm 5 mps 763 mmHg 56%
    17:00 +13°C° 0 mm 4 mps 763 mmHg 58%
    18:00 +13°C° 0 mm 4 mps 763 mmHg 61%
    19:00 +12°C° 0 mm 4 mps 764 mmHg 64%
    20:00 +11°C° 0 mm 4 mps 764 mmHg 66%
    21:00 +10°C° 0 mm 4 mps 765 mmHg 69%
    22:00 +10°C° 0 mm 4 mps 765 mmHg 72%
    23:00 +9°C° 0 mm 5 mps 765 mmHg 75%

    22 April, Monday

    Time Temperature Precipitation Wind Pressure Humidity
    00:00 +9°C° 0 mm 5 mps 765 mmHg 78%
    01:00 +8°C° 0 mm 4 mps 765 mmHg 80%
    02:00 +9°C° 0 mm 3 mps 764 mmHg 83%
    03:00 +8°C° 0 mm 2 mps 764 mmHg 86%
    04:00 +8°C° 0 mm 2 mps 764 mmHg 86%
    05:00 +8°C° 0 mm 2 mps 764 mmHg 86%
    06:00 +8°C° 0 mm 2 mps 764 mmHg 86%
    07:00 +9°C° 0 mm 3 mps 764 mmHg 79%
    08:00 +10°C° 0 mm 3 mps 764 mmHg 71%
    09:00 +11°C° 0 mm 4 mps 764 mmHg 63%
    10:00 +12°C° 0 mm 4 mps 764 mmHg 59%
    11:00 +13°C° 0 mm 4 mps 764 mmHg 55%
    12:00 +14°C° 0 mm 5 mps 763 mmHg 51%
    13:00 +14°C° 0 mm 5 mps 763 mmHg 51%
    14:00 +14°C° 0 mm 5 mps 763 mmHg 50%
    15:00 +15°C° 0 mm 5 mps 762 mmHg 50%
    16:00 +14°C° 0 mm 5 mps 762 mmHg 54%
    17:00 +13°C° 0 mm 5 mps 763 mmHg 58%
    18:00 +13°C° 0 mm 5 mps 763 mmHg 62%
    19:00 +12°C° 0 mm 4 mps 763 mmHg 64%
    20:00 +12°C° 0 mm 4 mps 764 mmHg 66%
    21:00 +11°C° 0 mm 4 mps 765 mmHg 69%
    22:00 +11°C° 0.1 mm 4 mps 765 mmHg 70%
    23:00 +10°C° 0.1 mm 4 mps 765 mmHg 72%

    23 April, Tuesday

    Time Temperature Precipitation Wind Pressure Humidity
    00:00 +10°C° 0.1 mm 4 mps 765 mmHg 73%
    01:00 +10°C° 0.2 mm 3 mps 765 mmHg 76%
    02:00 +9°C° 0.2 mm 2 mps 765 mmHg 78%
    03:00 +10°C° 0.2 mm 1 mps 765 mmHg 81%
    04:00 +10°C° 0.2 mm 1 mps 766 mmHg 82%
    05:00 +10°C° 0.2 mm 1 mps 766 mmHg 84%
    06:00 +9°C° 0.2 mm 2 mps 766 mmHg 85%
    07:00 +10°C° 0.1 mm 2 mps 766 mmHg 79%
    08:00 +12°C° 0.1 mm 2 mps 767 mmHg 73%
    09:00 +13°C° 0.1 mm 2 mps 767 mmHg 68%
    10:00 +13°C° 0 mm 3 mps 767 mmHg 64%
    11:00 +14°C° 0 mm 3 mps 767 mmHg 60%
    12:00 +16°C° 0 mm 3 mps 767 mmHg 57%
    13:00 +17°C° 0.1 mm 4 mps 767 mmHg 55%
    14:00 +16°C° 0.1 mm 5 mps 766 mmHg 53%
    15:00 +16°C° 0.1 mm 5 mps 766 mmHg 52%
    16:00 +15°C° 0 mm 5 mps 767 mmHg 53%
    17:00 +15°C° 0 mm 5 mps 767 mmHg 55%
    18:00 +14°C° 0 mm 6 mps 768 mmHg 57%
    19:00 +13°C° 0 mm 5 mps 768 mmHg 60%
    20:00 +12°C° 0 mm 5 mps 769 mmHg 62%
    21:00 +11°C° 0 mm 4 mps 769 mmHg 65%
    22:00 +11°C° 0 mm 4 mps 769 mmHg 66%
    23:00 +10°C° 0 mm 4 mps 769 mmHg 68%

    24 April, Wednesday

    Time Temperature Precipitation Wind Pressure Humidity
    00:00 +10°C° 0 mm 3 mps 769 mmHg 69%
    01:00 +10°C° 0 mm 3 mps 769 mmHg 71%
    02:00 +9°C° 0 mm 2 mps 769 mmHg 73%
    03:00 +9°C° 0 mm 2 mps 769 mmHg 74%
    04:00 +10°C° 0 mm 1 mps 770 mmHg 74%
    05:00 +10°C° 0 mm 1 mps 770 mmHg 73%
    06:00 +9°C° 0 mm 0 mps 770 mmHg 73%
    07:00 +11°C° 0 mm 0 mps 770 mmHg 66%
    08:00 +12°C° 0 mm 0 mps 770 mmHg 59%
    09:00 +13°C° 0 mm 0 mps 770 mmHg 52%
    10:00 +15°C° 0 mm 1 mps 769 mmHg 47%
    11:00 +16°C° 0 mm 2 mps 769 mmHg 42%
    12:00 +18°C° 0 mm 2 mps 768 mmHg 37%
    13:00 +18°C° 0 mm 2 mps 768 mmHg 36%
    14:00 +19°C° 0 mm 3 mps 768 mmHg 35%
    15:00 +19°C° 0 mm 3 mps 767 mmHg 34%
    16:00 +19°C° 0 mm 3 mps 768 mmHg 38%
    17:00 +18°C° 0 mm 3 mps 768 mmHg 41%
    18:00 +17°C° 0 mm 3 mps 768 mmHg 45%
    19:00 +15°C° 0 mm 4 mps 769 mmHg 48%
    20:00 +14°C° 0 mm 5 mps 769 mmHg 50%
    21:00 +13°C° 0 mm 6 mps 770 mmHg 53%
    22:00 +12°C° 0 mm 5 mps 770 mmHg 56%
    23:00 +11°C° 0 mm 4 mps 770 mmHg 59%
    Show more